Regional Weather Roundup
Issued by NWS

Home | Current Version | Previous Version | Text Only | Print | Product List | Glossary Off
Versions: 1 2 3 4 5 6 7 8 9 10 11 12 13 14 15 16 17 18 19 20 21 22 23 24 25 26 27 28 29 30 31 32 33 34 35 36 37 38 39 40 41 42 43 44 45 46 47 48 49 50

000
ASUS45 KCYS 271210
RWRWY

WYOMING REGIONAL WEATHER ROUNDUP
NATIONAL WEATHER SERVICE CHEYENNE WY
500 AM MST TUE JAN 27 2015

NOTE:  "FAIR" INDICATES FEW OR NO CLOUDS BELOW 12,000 FEET
WITH NO SIGNIFICANT WEATHER AND/OR OBSTRUCTIONS TO VISIBILITY.

WYZ001-271300-
YELLOWSTONE NATIONAL PARK

CITY           SKY/WX    TMP DP  RH WIND       PRES   REMARKS
LK YELLOWSTONE   N/A      9   4  80 CALM      30.26F
6HR MIN TEMP:   8; 6HR MAX TEMP:  14;

W YELLOWSTONE  NOT AVBL

$$
WYZ002>013-054>058-071-098>099-271300-
NORTHERN WYOMING

CITY           SKY/WX    TMP DP  RH WIND       PRES   REMARKS
JACKSON        CLOUDY    10  10 100 CALM      30.27S VSB 1/4
CODY           FAIR      36  27  69 S3        30.04F
GREYBULL       FAIR      15  14  95 S3        30.09F
6HR MIN TEMP:  15; 6HR MAX TEMP:  23;

WORLAND        FAIR      19  16  88 SW7       30.08F WCI  10
6HR MIN TEMP:  14; 6HR MAX TEMP:  24;

SHERIDAN       FAIR      36  24  62 W5        29.96S WCI  32
6HR MIN TEMP:  35; 6HR MAX TEMP:  46;

BUFFALO        FAIR      45  22  40 W9        30.02F
6HR MIN TEMP:  43; 6HR MAX TEMP:  59;

GILLETTE       FAIR      50  26  39 SW17      29.99F
6HR MIN TEMP:  47; 6HR MAX TEMP:  50;

HULETT           N/A    N/A N/A N/A MISG        N/A
NEWCASTLE      FAIR      32  27  80 CALM      30.06S

$$
WYZ014>020-022>026-101>103-271300-
CENTRAL WYOMING

CITY           SKY/WX    TMP DP  RH WIND       PRES   REMARKS
BIG PINEY      FAIR      12   9  87 N5        30.27F WCI   4
6HR MIN TEMP:  12; 6HR MAX TEMP:  21;

PINEDALE       FAIR      10   9  92 W5        30.26F WCI   2
DUBOIS         FAIR      34  18  51 NW12      30.19F WCI  25
LANDER         FAIR      30  23  75 CALM      30.13F
6HR MIN TEMP:  24; 6HR MAX TEMP:  34;

RIVERTON       FAIR      27  24  89 N6        30.16F WCI  20
6HR MIN TEMP:  25; 6HR MAX TEMP:  32;

CASPER         FAIR      44  24  45 SW18G25   30.13S
6HR MIN TEMP:  43; 6HR MAX TEMP:  47;

DOUGLAS        FAIR      36  24  62 NW8       30.10S WCI  30
6HR MIN TEMP:  31; 6HR MAX TEMP:  44;


$$
WYZ021-027>030-104>119-271300-
SOUTHERN WYOMING

CITY           SKY/WX    TMP DP  RH WIND       PRES   REMARKS
EVANSTON       FAIR      34  25  69 E10       30.23F WCI  26
6HR MIN TEMP:  31; 6HR MAX TEMP:  40;

KEMMERER       FAIR      27  19  74 N8        30.25F WCI  18
FORT BRIDGER   FAIR      32  30  94 W3        30.27F
ROCK SPRINGS   FAIR      32  24  72 N3        30.24F
6HR MIN TEMP:  28; 6HR MAX TEMP:  37;

DIXON          FAIR      23  19  84 CALM      30.33S
RAWLINS        FAIR      27  21  78 CALM      30.26F
6HR MIN TEMP:  24; 6HR MAX TEMP:  30;

SARATOGA       FAIR      30  23  74 S10       30.29S WCI  21
LARAMIE        FAIR      30  19  63 S6        30.26S WCI  24
6HR MIN TEMP:  24; 6HR MAX TEMP:  33;

CHEYENNE       FAIR      46  18  32 W14       30.16S
6HR MIN TEMP:  36; 6HR MAX TEMP:  52;

TORRINGTON     FAIR      32  25  75 CALM      30.06S
6HR MIN TEMP:  29; 6HR MAX TEMP:  35;

PINE BLUFFS    FAIR      34  23  64 S7        30.12F WCI  28

$$



USA.gov is the U.S. government's official web portal to all federal, state and local government web resources and services.